User: anonymous   Login
Location: Unspecified
(0.0000°N, 0.0000°E)
Time: 11:53:58
(UTC+00:00)
Language:

GALILEO 10 (206) - Orbit

View from above orbital plane
View from above orbital plane
View from above satellite
View from above satellite

Ground track
Ground track

The orbit data is extracted from the following two-line orbital elements,

1 40890U 15045B   22273.27168705  .00000034  00000-0  00000-0 0  9995
2 40890  55.5604 259.0623 0003123 324.4291  35.5341  1.70473098 43927
Epoch (UTC): 30 September 2022 06:31:13
Eccentricity: 0.0003123
inclination: 55.5604°
perigee height: 23213 km
apogee height: 23231 km
right ascension of ascending node: 259.0623°
argument of perigee: 324.4291°
revolutions per day: 1.70473098
mean anomaly at epoch: 35.5341°
orbit number at epoch: 4392

The dashed part of the orbit path shows where the satellite is in the earth's shadow,  

DLR